Weather History for KMFI - September, 2013

Change the Weather History Date:

Friday, September 6, 2013

  Actual Average Record
Temperature  
Mean Temperature 71 °F -  
Max Temperature 89 °F 75 °F 97 °F (1922)
Min Temperature 53 °F 50 °F 33 °F (1924)
Cooling Degree Days 6    
Growing Degree Days 21 (Base 50)    
Moisture  
Dew Point 56 °F    
Average Humidity 64    
Maximum Humidity 86    
Minimum Humidity 38    
Precipitation  
Precipitation 0.00 in - - ()
Sea Level Pressure  
Sea Level Pressure 30.07 in    
Wind  
Wind Speed 8 mph (SSW)    
Max Wind Speed 15 mph    
Max Gust Speed 26 mph    
Visibility 10 miles    
Events      
Averages and records for this station are not official NWS values.
T = Trace of Precipitation, MM = Missing Value Source: NWS Daily Summary

Daily Weather History Graph

Daily Weather History Graph

Search for Another Location

Airport or City:

Trip Planner

Search our weather history database for the weather conditions in past years. The results will help you decide how hot, cold, wet, or windy it might be!

Date:

Astronomy

Sep. 06, 2013 Rise Set
Actual Time 6:29 AM CDT 7:27 PM CDT
Civil Twilight 5:59 AM CDT 7:57 PM CDT
Nautical Twilight 5:24 AM CDT 8:32 PM CDT
Astronomical Twilight 4:46 AM CDT 9:09 PM CDT
Moon 7:47 AM CDT (9/6) 7:45 PM CDT (9/6)
Length of Visible Light 13h 57m
Length of Day
12h 58m
New Moon, 2% of the Moon is Illuminated
Sep 6
New Moon
Sep 12
First Quarter
Sep 19
Full
Sep 26
Last Quarter
Oct 4
New

Hourly Weather History & Observations

Time (CDT) Temp. Heat Index Dew Point Humidity Pressure Visibility Wind Dir Wind Speed Gust Speed Precip Events Conditions
12:54 AM 57.9 °F - 52.0 °F 81% 30.20 in 10.0 mi SSE 8.1 mph - N/A   Clear
1:54 AM 57.0 °F - 51.1 °F 81% 30.19 in 10.0 mi SSE 5.8 mph - N/A   Partly Cloudy
2:54 AM 55.9 °F - 50.0 °F 80% 30.19 in 10.0 mi SSE 4.6 mph - N/A   Clear
3:54 AM 54.0 °F - 50.0 °F 86% 30.19 in 10.0 mi SSE 4.6 mph - N/A   Clear
4:54 AM 53.1 °F - 48.9 °F 86% 30.19 in 10.0 mi South 4.6 mph - N/A   Clear
5:54 AM 54.0 °F - 50.0 °F 86% 30.19 in 10.0 mi South 5.8 mph - N/A   Overcast
6:54 AM 55.0 °F - 50.0 °F 83% 30.19 in 10.0 mi South 9.2 mph - N/A   Clear
7:54 AM 59.0 °F - 48.9 °F 69% 30.17 in 10.0 mi South 9.2 mph - N/A   Mostly Cloudy
8:54 AM 64.0 °F - 50.0 °F 60% 30.15 in 10.0 mi SSW 6.9 mph - N/A   Clear
9:54 AM 69.1 °F - 52.0 °F 54% 30.15 in 10.0 mi SSW 8.1 mph - N/A   Clear
10:54 AM 73.0 °F - 55.0 °F 53% 30.11 in 10.0 mi SSW 9.2 mph - N/A   Clear
11:54 AM 77.0 °F - 55.9 °F 48% 30.10 in 10.0 mi SSW 8.1 mph - N/A   Clear
12:54 PM 81.0 °F 81.3 °F 59.0 °F 47% 30.07 in 10.0 mi SW 9.2 mph - N/A   Clear
1:54 PM 82.9 °F 83.3 °F 61.0 °F 47% 30.04 in 10.0 mi SW 12.7 mph 20.7 mph N/A   Clear
2:54 PM 88.0 °F 87.9 °F 61.0 °F 40% 30.01 in 10.0 mi SW 10.4 mph 17.3 mph N/A   Clear
3:54 PM 89.1 °F 88.8 °F 60.1 °F 38% 29.99 in 10.0 mi SSW 15.0 mph 26.5 mph N/A   Partly Cloudy
4:54 PM 86.0 °F 85.7 °F 60.1 °F 41% 29.98 in 10.0 mi SW 12.7 mph - N/A   Clear
5:54 PM 84.0 °F 84.4 °F 61.0 °F 46% 29.96 in 10.0 mi SW 10.4 mph - N/A   Clear
6:54 PM 80.1 °F 81.5 °F 63.0 °F 56% 29.96 in 10.0 mi SSW 9.2 mph - N/A   Clear
7:54 PM 75.9 °F - 63.0 °F 64% 29.96 in 10.0 mi SW 8.1 mph - N/A   Clear
8:54 PM 73.9 °F - 63.0 °F 68% 29.96 in 10.0 mi SW 6.9 mph - N/A   Clear
9:54 PM 73.0 °F - 63.0 °F 71% 29.95 in 10.0 mi SSW 5.8 mph - N/A   Mostly Cloudy
10:54 PM 71.1 °F - 64.0 °F 78% 29.94 in 10.0 mi SW 5.8 mph - N/A   Mostly Cloudy
11:54 PM 70.0 °F - 64.0 °F 81% 29.94 in 10.0 mi SSW 5.8 mph - N/A   Mostly Cloudy